Kuchera_Ratio
1.4 2.2 2.3 2.3 2.2 3.1 3.8 4.5 4.2 4.3 4.5 5.3 6.7 6.9 8.2 8.5 10.1 11.8 12.1 12.1 12.4 12.8 13.1 13.4 13.6 13.8 14.2 14.9 14.8 15.1 15.5 16.1 16.1 16.1 16.2 16.0 16.1 15.8 15.2 14.9 14.6 14.7
1.7 2.4 1.8 2.7 3.3 3.9 4.6 4.0 3.7 3.8 4.4 5.0 6.0 6.8 7.8 9.0 10.3 11.3 12.4 12.4 12.6 12.9 13.2 13.5 13.7 13.9 14.4 15.2 15.3 15.9 16.1 16.0 16.5 14.9 16.0 16.2 15.8 15.0 14.7 14.5 14.6 14.4
2.2 2.9 3.4 3.9 4.0 4.4 5.0 4.9 3.7 3.7 4.6 5.4 6.3 7.5 8.9 9.2 10.8 11.7 12.5 12.8 12.9 13.0 13.3 13.7 13.8 14.2 14.7 15.3 15.6 15.8 16.1 16.5 16.7 16.0 15.6 15.8 15.0 14.6 14.2 14.2 14.5 14.7
2.9 3.2 3.5 3.9 4.2 4.8 5.7 6.2 5.0 4.6 5.3 7.7 8.3 8.5 8.8 10.2 11.3 12.4 12.9 12.7 13.3 13.3 13.4 13.9 14.1 14.3 14.8 15.4 15.6 16.0 16.2 16.2 16.0 15.8 15.8 14.9 14.3 14.0 14.2 14.3 14.4 14.4
3.0 3.5 4.0 4.5 5.0 5.7 6.7 6.8 5.8 5.8 7.3 7.7 8.3 9.2 10.0 11.2 12.4 12.7 13.1 13.3 13.6 13.7 13.9 14.2 14.3 14.4 14.8 15.4 15.6 16.4 16.2 16.3 16.0 15.8 16.0 16.0 15.1 14.5 14.3 14.4 14.8 15.0
3.7 4.4 5.0 5.4 6.0 6.8 7.8 7.5 6.3 7.0 9.2 9.6 10.0 9.5 10.1 11.0 12.5 13.1 13.4 13.5 13.6 13.8 14.2 14.4 14.4 14.4 14.8 15.4 15.8 16.2 16.3 16.3 16.2 15.9 16.2 16.3 15.9 15.0 14.5 14.5 15.0 15.6
4.2 5.1 5.7 6.4 7.2 7.9 8.5 8.2 7.8 8.0 9.2 8.9 9.6 10.5 11.5 12.1 12.6 13.1 13.4 13.4 13.6 14.0 14.4 14.5 14.4 14.5 14.8 15.4 15.9 16.3 16.3 16.4 16.3 16.1 16.4 16.2 15.8 15.5 14.7 15.3 15.8 16.2
4.5 5.7 6.5 7.4 8.4 9.2 9.5 9.2 9.8 9.7 9.6 9.8 11.5 10.6 11.7 12.1 12.5 12.8 13.1 13.4 13.8 14.2 14.4 14.6 14.4 14.6 15.0 15.5 16.1 16.5 16.6 16.0 16.2 16.5 16.5 16.7 16.5 16.7 17.1 16.6 16.5 17.0
5.2 6.7 7.5 8.4 9.4 9.5 9.7 9.2 10.0 9.9 9.4 10.8 11.7 11.8 12.0 12.4 12.4 12.6 12.9 13.3 13.9 14.3 14.6 14.8 14.6 14.7 15.0 15.5 16.1 16.5 16.8 16.4 16.1 16.5 16.9 17.1 17.7 17.6 17.4 16.6 16.6 16.7
6.0 7.5 8.5 9.4 10.2 9.3 9.7 9.2 9.1 9.9 9.8 11.0 11.1 12.0 12.8 12.5 12.1 12.5 13.0 13.5 14.2 14.5 14.7 14.8 14.8 14.8 15.1 15.7 16.2 16.3 16.5 16.7 16.7 16.9 17.5 17.7 17.8 17.9 17.9 17.5 17.5 17.6
6.6 8.2 9.3 10.1 11.0 10.7 10.9 9.9 10.1 9.8 10.2 11.7 11.2 12.6 12.9 12.8 12.8 12.6 13.2 13.7 14.4 14.8 15.0 15.0 15.0 15.1 15.4 15.8 16.1 16.1 16.4 16.9 17.7 18.1 18.1 18.5 18.2 18.1 16.9 18.0 18.5 18.8
7.0 8.4 9.6 10.5 11.0 11.0 11.2 10.6 9.8 9.8 11.0 11.7 12.0 12.7 13.0 13.0 13.2 13.4 13.5 14.0 14.1 14.6 14.9 14.9 15.1 15.6 15.8 16.1 16.4 16.5 16.8 17.8 18.5 18.5 18.9 18.8 18.5 18.5 18.8 19.0 19.3 19.6
6.8 7.9 9.3 10.2 10.7 10.8 10.7 11.5 10.8 10.6 11.3 11.6 12.1 12.4 13.3 13.7 13.6 13.6 13.5 13.8 14.0 14.3 14.7 14.9 15.0 15.1 15.6 16.2 16.8 17.0 17.8 18.3 18.8 18.8 18.5 18.5 19.6 19.3 19.6 19.6 19.6 19.3
6.0 7.1 8.8 9.2 9.0 10.5 10.7 11.0 11.2 10.9 11.5 12.0 12.5 13.0 13.8 13.8 14.1 13.9 13.6 13.8 14.0 14.2 14.4 14.4 14.8 15.2 15.5 16.5 17.1 17.5 18.0 18.5 18.7 18.6 18.7 19.9 20.2 19.7 19.3 19.1 18.7 18.1
5.7 7.1 8.8 9.4 9.8 9.9 10.4 10.5 10.8 10.9 11.3 12.0 12.5 13.1 13.5 13.6 13.9 14.0 14.1 14.4 14.1 14.3 14.5 14.5 15.3 15.9 16.1 16.9 17.4 17.8 18.1 18.6 18.8 18.7 19.2 19.2 19.6 19.3 18.2 17.6 17.2 16.9
5.9 7.5 9.1 10.5 10.5 10.8 10.5 10.4 10.7 11.3 12.0 12.3 13.0 13.3 13.7 13.3 13.7 14.1 14.3 14.5 14.8 14.7 14.6 14.9 15.6 15.8 15.0 14.1 14.9 17.8 18.4 18.8 19.2 18.9 19.4 19.5 19.2 18.6 17.7 17.0 17.0 16.7
6.3 7.7 9.4 11.3 10.8 10.3 10.8 11.2 11.3 11.4 12.0 12.7 13.1 13.5 14.0 14.3 14.3 14.8 14.9 14.6 14.9 15.1 15.2 15.4 15.7 15.8 13.9 13.0 12.9 13.1 17.2 19.0 19.2 19.0 18.5 18.6 18.5 18.1 18.1 18.1 17.4 16.5
6.1 7.8 9.6 11.2 11.2 10.9 10.6 10.8 11.1 12.1 12.3 12.8 13.6 13.9 14.6 14.2 14.8 15.3 14.9 14.7 14.9 15.1 15.4 15.5 15.9 14.4 13.2 12.7 12.4 12.4 13.5 17.4 18.2 18.5 18.5 18.1 17.5 17.5 17.4 17.3 16.9 17.6
5.6 7.7 9.5 10.9 12.1 12.0 10.3 10.8 11.9 12.2 12.6 12.9 13.5 14.1 14.5 15.1 15.7 15.4 15.5 15.2 15.2 15.6 16.0 16.0 16.1 13.9 12.9 12.4 12.3 12.1 12.0 14.1 17.3 17.3 17.7 17.5 17.3 17.1 17.1 17.0 17.0 17.4
5.4 7.5 8.9 10.2 11.7 11.9 11.8 11.4 12.0 12.6 12.5 12.7 13.4 14.2 15.0 15.6 15.5 15.7 15.4 15.5 15.5 15.8 16.2 16.0 16.1 14.3 12.9 12.3 12.2 11.9 12.0 12.5 15.9 16.7 16.8 16.9 16.8 17.1 17.2 17.0 16.8 17.5
5.3 7.2 8.5 9.7 11.5 12.4 12.2 12.2 12.2 12.4 12.6 13.5 13.8 14.6 15.4 16.1 16.0 16.0 16.0 15.8 15.7 15.6 16.1 16.1 15.9 13.8 13.0 12.4 12.0 11.7 11.8 12.4 14.8 15.6 16.4 16.7 16.9 17.0 17.2 17.0 16.9 17.7
5.1 6.8 8.2 9.5 11.4 12.7 12.9 12.4 12.3 12.6 13.0 13.4 14.0 14.5 15.0 15.3 15.6 15.8 16.0 16.3 15.9 15.9 16.2 16.6 15.9 13.4 13.0 12.5 12.0 11.7 11.7 13.6 15.0 16.2 17.1 17.4 17.7 17.2 16.5 16.4 16.9 17.8
4.9 6.5 7.9 9.0 11.2 12.8 13.3 12.9 12.7 12.9 13.0 13.2 14.5 15.1 15.6 15.9 16.1 15.8 15.5 15.7 16.0 16.0 16.3 16.5 16.1 14.0 12.8 12.4 12.2 11.5 12.5 14.5 15.9 17.0 17.8 18.2 18.2 17.7 17.2 17.0 17.6 19.2
4.8 5.9 7.2 8.5 10.8 12.5 13.2 12.6 12.2 12.4 13.1 13.5 14.5 15.4 16.0 15.7 15.6 15.9 15.6 15.5 15.8 16.0 15.9 16.3 16.3 14.7 12.9 12.4 12.1 11.8 12.6 15.3 16.5 17.7 18.4 18.6 19.0 18.2 17.8 17.5 17.2 15.6
4.7 5.4 6.6 8.1 10.0 11.8 12.6 13.0 12.6 12.8 13.0 13.7 14.3 14.9 15.5 15.3 15.6 16.1 16.0 15.6 15.4 15.4 14.7 15.6 16.1 15.2 13.2 12.6 12.1 11.7 12.7 15.3 16.8 18.1 19.0 19.5 20.0 20.3 20.1 20.3 19.6 18.1
4.9 5.4 6.5 7.7 8.8 10.5 12.2 13.1 12.8 13.2 13.7 14.2 14.5 14.7 15.5 15.5 15.8 16.2 16.3 16.2 15.4 15.5 15.5 15.0 16.0 16.0 14.8 12.7 12.4 11.8 11.7 15.0 17.2 18.5 19.8 20.2 20.1 20.1 21.0 21.3 20.4 20.5